Location: Camaret
(48.2753°N, 4.5961°W)
Time: 03:55:47
(UTC+00:00)

ATLAS 2AS CENTAUR R/B - Pass Details

Date: 29 October 2020
Orbit: 939 x 1273 km, 63.7° (Epoch: 23 November)

Event Time Altitude Azimuth Distance (km) Brightness Sun altitude
Rises 18:11:32 0° 314° (NW) 4,196 6.4 -11.8°
Reaches altitude 10° 18:14:40 10° 322° (NW) 3,194 5.6 -12.3°
Maximum altitude 18:21:44 38° 29° (NNE) 1,718 3.5 -13.5°
Enters shadow 18:26:17 19° 86° (E) 2,392 3.9 -14.2°
